Time,TemperatureF,DewpointF,PressureIn,WindDirection,WindDirectionDegrees,WindSpeedMPH,WindSpeedGustMPH,Humidity,HourlyPrecipIn,Conditions,Clouds,dailyrainin,SolarRadiationWatts/m^2,SoftwareType,DateUTC
2013-02-06 00:11:00,33.0,19.0,-100.00,ENE,70,4.0,6.0,56,0.00,,,0.00,0.000000,,2013-02-06 07:11:00,
2013-02-06 00:21:00,33.0,19.0,-100.00,ENE,70,4.0,6.0,56,0.00,,,0.00,0.000000,,2013-02-06 07:21:00,
2013-02-06 00:32:00,33.0,19.0,-100.00,ENE,70,4.0,6.0,56,0.00,,,0.00,0.000000,,2013-02-06 07:32:00,
2013-02-06 00:41:00,33.0,19.0,-100.00,ENE,70,4.0,6.0,56,0.00,,,0.00,0.000000,,2013-02-06 07:41:00,
2013-02-06 01:01:00,33.0,20.0,-100.00,ENE,78,4.0,7.0,58,0.00,,,0.00,0.000000,,2013-02-06 08:01:00,
2013-02-06 01:11:00,33.0,20.0,-100.00,ENE,78,4.0,7.0,58,0.00,,,0.00,0.000000,,2013-02-06 08:11:00,
2013-02-06 01:21:00,33.0,20.0,-100.00,ENE,78,4.0,7.0,58,0.00,,,0.00,0.000000,,2013-02-06 08:21:00,
2013-02-06 01:31:00,33.0,20.0,-100.00,ENE,78,4.0,7.0,58,0.00,,,0.00,0.000000,,2013-02-06 08:31:00,
2013-02-06 01:41:00,33.0,20.0,-100.00,ENE,78,4.0,7.0,58,0.00,,,0.00,0.000000,,2013-02-06 08:41:00,
2013-02-06 02:01:00,35.0,22.0,-100.00,ENE,64,3.0,7.0,58,0.00,,,0.00,0.000000,,2013-02-06 09:01:00,
2013-02-06 02:11:00,35.0,22.0,-100.00,ENE,64,3.0,7.0,58,0.00,,,0.00,0.000000,,2013-02-06 09:11:00,
2013-02-06 02:21:00,35.0,22.0,-100.00,ENE,64,3.0,7.0,58,0.00,,,0.00,0.000000,,2013-02-06 09:21:00,
2013-02-06 02:31:00,35.0,22.0,-100.00,ENE,64,3.0,7.0,58,0.00,,,0.00,0.000000,,2013-02-06 09:31:00,
2013-02-06 02:41:00,35.0,22.0,-100.00,ENE,64,3.0,7.0,58,0.00,,,0.00,0.000000,,2013-02-06 09:41:00,
2013-02-06 03:01:00,34.0,22.0,-100.00,East,84,4.0,7.0,61,0.00,,,0.00,0.000000,,2013-02-06 10:01:00,
2013-02-06 03:11:00,34.0,22.0,-100.00,East,84,4.0,7.0,61,0.00,,,0.00,0.000000,,2013-02-06 10:11:00,
2013-02-06 03:21:00,34.0,22.0,-100.00,East,84,4.0,7.0,61,0.00,,,0.00,0.000000,,2013-02-06 10:21:00,
2013-02-06 03:31:00,34.0,22.0,-100.00,East,84,4.0,7.0,61,0.00,,,0.00,0.000000,,2013-02-06 10:31:00,
2013-02-06 03:41:00,34.0,22.0,-100.00,East,84,4.0,7.0,61,0.00,,,0.00,0.000000,,2013-02-06 10:41:00,
2013-02-06 04:11:00,32.0,20.0,-100.00,ENE,78,3.0,6.0,60,0.00,,,0.00,0.000000,,2013-02-06 11:11:00,
2013-02-06 04:22:00,32.0,20.0,-100.00,ENE,78,3.0,6.0,60,0.00,,,0.00,0.000000,,2013-02-06 11:22:00,
2013-02-06 04:32:00,32.0,20.0,-100.00,ENE,78,3.0,6.0,60,0.00,,,0.00,0.000000,,2013-02-06 11:32:00,
2013-02-06 04:42:00,32.0,20.0,-100.00,ENE,78,3.0,6.0,60,0.00,,,0.00,0.000000,,2013-02-06 11:42:00,
2013-02-06 05:12:00,32.0,20.0,-100.00,East,79,3.0,5.0,61,0.00,,,0.00,0.000000,,2013-02-06 12:12:00,
2013-02-06 05:22:00,32.0,20.0,-100.00,East,79,3.0,5.0,61,0.00,,,0.00,0.000000,,2013-02-06 12:22:00,
2013-02-06 05:32:00,32.0,20.0,-100.00,East,79,3.0,5.0,61,0.00,,,0.00,0.000000,,2013-02-06 12:32:00,
2013-02-06 05:42:00,32.0,20.0,-100.00,East,79,3.0,5.0,61,0.00,,,0.00,0.000000,,2013-02-06 12:42:00,
2013-02-06 06:01:00,32.0,20.0,-100.00,ENE,74,3.0,6.0,61,0.00,,,0.00,0.000000,,2013-02-06 13:01:00,
2013-02-06 06:11:00,32.0,20.0,-100.00,ENE,74,3.0,6.0,61,0.00,,,0.00,0.000000,,2013-02-06 13:11:00,
2013-02-06 06:21:00,32.0,20.0,-100.00,ENE,74,3.0,6.0,61,0.00,,,0.00,0.000000,,2013-02-06 13:21:00,
2013-02-06 06:31:00,32.0,20.0,-100.00,ENE,74,3.0,6.0,61,0.00,,,0.00,0.000000,,2013-02-06 13:31:00,
2013-02-06 06:42:00,32.0,20.0,-100.00,ENE,74,3.0,6.0,61,0.00,,,0.00,0.000000,,2013-02-06 13:42:00,
2013-02-06 07:01:00,32.0,19.0,-100.00,East,96,4.0,10.0,59,0.00,,,0.00,0.000000,,2013-02-06 14:01:00,
2013-02-06 07:11:00,32.0,19.0,-100.00,East,96,4.0,10.0,59,0.00,,,0.00,0.000000,,2013-02-06 14:11:00,
2013-02-06 07:21:00,32.0,19.0,-100.00,East,96,4.0,10.0,59,0.00,,,0.00,0.000000,,2013-02-06 14:21:00,
2013-02-06 07:31:00,32.0,19.0,-100.00,East,96,4.0,10.0,59,0.00,,,0.00,0.000000,,2013-02-06 14:31:00,
2013-02-06 07:41:00,32.0,19.0,-100.00,East,96,4.0,10.0,59,0.00,,,0.00,0.000000,,2013-02-06 14:41:00,
2013-02-06 08:01:00,35.0,20.0,-100.00,East,83,3.0,8.0,55,0.00,,,0.00,0.000000,,2013-02-06 15:01:00,
2013-02-06 08:31:00,35.0,20.0,-100.00,East,83,3.0,8.0,55,0.00,,,0.00,0.000000,,2013-02-06 15:31:00,
2013-02-06 08:41:00,35.0,20.0,-100.00,East,83,3.0,8.0,55,0.00,,,0.00,0.000000,,2013-02-06 15:41:00,
2013-02-06 09:11:00,36.0,21.0,-100.00,East,97,3.0,4.0,53,0.00,,,0.00,36.000000,,2013-02-06 16:11:00,
2013-02-06 09:21:00,36.0,21.0,-100.00,East,97,3.0,4.0,53,0.00,,,0.00,36.000000,,2013-02-06 16:21:00,
2013-02-06 09:32:00,36.0,21.0,-100.00,East,97,3.0,4.0,53,0.00,,,0.00,36.000000,,2013-02-06 16:32:00,
2013-02-06 09:41:00,36.0,21.0,-100.00,East,97,3.0,4.0,53,0.00,,,0.00,36.000000,,2013-02-06 16:41:00,
2013-02-06 10:01:00,41.0,21.0,-100.00,ESE,109,0.0,4.0,44,0.00,,,0.00,95.000000,,2013-02-06 17:01:00,
2013-02-06 10:11:00,41.0,21.0,-100.00,ESE,109,0.0,4.0,44,0.00,,,0.00,95.000000,,2013-02-06 17:11:00,
2013-02-06 10:21:00,41.0,21.0,-100.00,ESE,109,0.0,4.0,44,0.00,,,0.00,95.000000,,2013-02-06 17:21:00,
2013-02-06 10:32:00,41.0,21.0,-100.00,ESE,109,0.0,4.0,44,0.00,,,0.00,95.000000,,2013-02-06 17:32:00,
2013-02-06 10:41:00,41.0,21.0,-100.00,ESE,109,0.0,4.0,44,0.00,,,0.00,95.000000,,2013-02-06 17:41:00,
2013-02-06 11:01:00,45.0,23.0,-100.00,SW,217,2.0,7.0,42,0.00,,,0.00,319.000000,,2013-02-06 18:01:00,
2013-02-06 11:32:00,45.0,23.0,-100.00,SW,217,2.0,7.0,42,0.00,,,0.00,319.000000,,2013-02-06 18:32:00,
2013-02-06 11:41:00,45.0,23.0,-100.00,SW,217,2.0,7.0,42,0.00,,,0.00,319.000000,,2013-02-06 18:41:00,
2013-02-06 12:01:00,46.0,26.0,-100.00,East,83,3.0,8.0,45,0.00,,,0.00,425.000000,,2013-02-06 19:01:00,
2013-02-06 12:11:00,46.0,26.0,-100.00,East,83,3.0,8.0,45,0.00,,,0.00,425.000000,,2013-02-06 19:11:00,
2013-02-06 12:21:00,46.0,26.0,-100.00,East,83,3.0,8.0,45,0.00,,,0.00,425.000000,,2013-02-06 19:21:00,
2013-02-06 12:31:00,46.0,26.0,-100.00,East,83,3.0,8.0,45,0.00,,,0.00,425.000000,,2013-02-06 19:31:00,
2013-02-06 12:41:00,46.0,26.0,-100.00,East,83,3.0,8.0,45,0.00,,,0.00,425.000000,,2013-02-06 19:41:00,
2013-02-06 13:01:00,44.0,25.0,-100.00,West,267,2.0,9.0,46,0.00,,,0.00,571.000000,,2013-02-06 20:01:00,
2013-02-06 13:11:00,44.0,25.0,-100.00,West,267,2.0,9.0,46,0.00,,,0.00,571.000000,,2013-02-06 20:11:00,
2013-02-06 13:21:00,44.0,25.0,-100.00,West,267,2.0,9.0,46,0.00,,,0.00,571.000000,,2013-02-06 20:21:00,
2013-02-06 13:31:00,44.0,25.0,-100.00,West,267,2.0,9.0,46,0.00,,,0.00,571.000000,,2013-02-06 20:31:00,
2013-02-06 13:41:00,44.0,25.0,-100.00,West,267,2.0,9.0,46,0.00,,,0.00,571.000000,,2013-02-06 20:41:00,
2013-02-06 14:01:00,44.0,23.0,-100.00,NNW,334,3.0,6.0,43,0.00,,,0.00,369.000000,,2013-02-06 21:01:00,
2013-02-06 14:11:00,44.0,23.0,-100.00,NNW,334,3.0,6.0,43,0.00,,,0.00,369.000000,,2013-02-06 21:11:00,
2013-02-06 14:21:00,44.0,23.0,-100.00,NNW,334,3.0,6.0,43,0.00,,,0.00,369.000000,,2013-02-06 21:21:00,
2013-02-06 14:31:00,44.0,23.0,-100.00,NNW,334,3.0,6.0,43,0.00,,,0.00,369.000000,,2013-02-06 21:31:00,
2013-02-06 14:41:00,44.0,23.0,-100.00,NNW,334,3.0,6.0,43,0.00,,,0.00,369.000000,,2013-02-06 21:41:00,
2013-02-06 15:01:00,44.0,23.0,-100.00,North,358,4.0,7.0,43,0.00,,,0.00,339.000000,,2013-02-06 22:01:00,
2013-02-06 15:11:00,44.0,23.0,-100.00,North,358,4.0,7.0,43,0.00,,,0.00,339.000000,,2013-02-06 22:11:00,
2013-02-06 15:21:00,44.0,23.0,-100.00,North,358,4.0,7.0,43,0.00,,,0.00,339.000000,,2013-02-06 22:21:00,
2013-02-06 15:31:00,44.0,23.0,-100.00,North,358,4.0,7.0,43,0.00,,,0.00,339.000000,,2013-02-06 22:31:00,
2013-02-06 15:41:00,44.0,23.0,-100.00,North,358,4.0,7.0,43,0.00,,,0.00,339.000000,,2013-02-06 22:41:00,
2013-02-06 16:01:00,44.0,22.0,-100.00,WNW,282,1.0,6.0,42,0.00,,,0.00,337.000000,,2013-02-06 23:01:00,
2013-02-06 16:11:00,44.0,22.0,-100.00,WNW,282,1.0,6.0,42,0.00,,,0.00,337.000000,,2013-02-06 23:11:00,
2013-02-06 16:21:00,44.0,22.0,-100.00,WNW,282,1.0,6.0,42,0.00,,,0.00,337.000000,,2013-02-06 23:21:00,
2013-02-06 16:31:00,44.0,22.0,-100.00,WNW,282,1.0,6.0,42,0.00,,,0.00,337.000000,,2013-02-06 23:31:00,
2013-02-06 16:41:00,44.0,22.0,-100.00,WNW,282,1.0,6.0,42,0.00,,,0.00,337.000000,,2013-02-06 23:41:00,
2013-02-06 17:01:00,48.0,24.0,-100.00,ESE,114,3.0,8.0,38,0.00,,,0.00,265.000000,,2013-02-07 00:01:00,
2013-02-06 17:11:00,48.0,24.0,-100.00,ESE,114,3.0,8.0,38,0.00,,,0.00,265.000000,,2013-02-07 00:11:00,
2013-02-06 17:21:00,48.0,24.0,-100.00,ESE,114,3.0,8.0,38,0.00,,,0.00,265.000000,,2013-02-07 00:21:00,
2013-02-06 17:31:00,48.0,24.0,-100.00,ESE,114,3.0,8.0,38,0.00,,,0.00,265.000000,,2013-02-07 00:31:00,
2013-02-06 17:41:00,48.0,24.0,-100.00,ESE,114,3.0,8.0,38,0.00,,,0.00,265.000000,,2013-02-07 00:41:00,
2013-02-06 18:01:00,42.0,23.0,-100.00,NW,306,4.0,6.0,46,0.00,,,0.00,295.000000,,2013-02-07 01:01:00,
2013-02-06 18:11:00,42.0,23.0,-100.00,NW,306,4.0,6.0,46,0.00,,,0.00,295.000000,,2013-02-07 01:11:00,
2013-02-06 18:21:00,42.0,23.0,-100.00,NW,306,4.0,6.0,46,0.00,,,0.00,295.000000,,2013-02-07 01:21:00,
2013-02-06 18:31:00,42.0,23.0,-100.00,NW,306,4.0,6.0,46,0.00,,,0.00,295.000000,,2013-02-07 01:31:00,
2013-02-06 18:41:00,42.0,23.0,-100.00,NW,306,4.0,6.0,46,0.00,,,0.00,295.000000,,2013-02-07 01:41:00,
2013-02-06 19:01:00,38.0,24.0,-100.00,NNW,343,9.0,14.0,56,0.00,,,0.00,55.000000,,2013-02-07 02:01:00,
2013-02-06 19:11:00,38.0,24.0,-100.00,NNW,343,9.0,14.0,56,0.00,,,0.00,55.000000,,2013-02-07 02:11:00,
2013-02-06 19:21:00,38.0,24.0,-100.00,NNW,343,9.0,14.0,56,0.00,,,0.00,55.000000,,2013-02-07 02:21:00,
2013-02-06 19:31:00,38.0,24.0,-100.00,NNW,343,9.0,14.0,56,0.00,,,0.00,55.000000,,2013-02-07 02:31:00,
2013-02-06 19:41:00,38.0,24.0,-100.00,NNW,343,9.0,14.0,56,0.00,,,0.00,55.000000,,2013-02-07 02:41:00,
2013-02-06 20:02:00,35.0,23.0,-100.00,North,2,10.0,17.0,61,0.00,,,0.00,0.000000,,2013-02-07 03:02:00,
2013-02-06 20:11:00,35.0,23.0,-100.00,North,2,10.0,17.0,61,0.00,,,0.00,0.000000,,2013-02-07 03:11:00,
2013-02-06 20:21:00,35.0,23.0,-100.00,North,2,10.0,17.0,61,0.00,,,0.00,0.000000,,2013-02-07 03:21:00,
2013-02-06 20:31:00,35.0,23.0,-100.00,North,2,10.0,17.0,61,0.00,,,0.00,0.000000,,2013-02-07 03:31:00,
2013-02-06 20:41:00,35.0,23.0,-100.00,North,2,10.0,17.0,61,0.00,,,0.00,0.000000,,2013-02-07 03:41:00,
2013-02-06 21:11:00,34.0,23.0,-100.00,North,359,8.0,17.0,64,0.00,,,0.00,0.000000,,2013-02-07 04:11:00,
2013-02-06 21:22:00,34.0,23.0,-100.00,North,359,8.0,17.0,64,0.00,,,0.00,0.000000,,2013-02-07 04:22:00,
2013-02-06 21:31:00,34.0,23.0,-100.00,North,359,8.0,17.0,64,0.00,,,0.00,0.000000,,2013-02-07 04:31:00,
2013-02-06 21:41:00,34.0,23.0,-100.00,North,359,8.0,17.0,64,0.00,,,0.00,0.000000,,2013-02-07 04:41:00,
2013-02-06 22:01:00,33.0,24.0,-100.00,North,10,7.0,15.0,68,0.00,,,0.00,0.000000,,2013-02-07 05:01:00,
2013-02-06 22:11:00,33.0,24.0,-100.00,North,10,7.0,15.0,68,0.00,,,0.00,0.000000,,2013-02-07 05:11:00,
2013-02-06 22:21:00,33.0,24.0,-100.00,North,10,7.0,15.0,68,0.00,,,0.00,0.000000,,2013-02-07 05:21:00,
2013-02-06 22:32:00,33.0,24.0,-100.00,North,10,7.0,15.0,68,0.00,,,0.00,0.000000,,2013-02-07 05:32:00,
2013-02-06 22:42:00,33.0,24.0,-100.00,North,10,7.0,15.0,68,0.00,,,0.00,0.000000,,2013-02-07 05:42:00,
2013-02-06 23:02:00,33.0,23.0,-100.00,North,355,10.0,17.0,66,0.00,,,0.00,0.000000,,2013-02-07 06:02:00,
2013-02-06 23:11:00,33.0,23.0,-100.00,North,355,10.0,17.0,66,0.00,,,0.00,0.000000,,2013-02-07 06:11:00,
2013-02-06 23:22:00,33.0,23.0,-100.00,North,355,10.0,17.0,66,0.00,,,0.00,0.000000,,2013-02-07 06:22:00,
2013-02-06 23:31:00,33.0,23.0,-100.00,North,355,10.0,17.0,66,0.00,,,0.00,0.000000,,2013-02-07 06:31:00,
2013-02-06 23:43:00,33.0,23.0,-100.00,North,355,10.0,17.0,66,0.00,,,0.00,0.000000,,2013-02-07 06:43:00,